x

St. Joseph, Mi (sjom4) Weather Station

6:19pm - Thu 18th Sep 2014 All times are CDT. -5 hours from GMT.

  • Wind
    6mph, 13mph gusts
  • Air Temp 65°f
  • Sea Pressure 1020.3mb
  • St. Joseph, Mi
  • St. Joseph, Mi

More Historic Weather Station data

Upgrade to MSW Pro to gain access to the past 30 days of data for over 8000 Wavebouys and Weather Stations around the globe.

Join Pro

Comparision Forecast

View Surf forecast
   
Thu 09/18 6:19pm 6 13 mph 1020.3mb 65f
6:00pm 8 13 mph 1020mb 65f
5:50pm 8 13 mph 1020mb 65f
5:40pm 9 11 mph 1020.7mb 65f
5:30pm 8 13 mph 1020.7mb 65f
5:20pm 9 11 mph 1020.7mb 65f
5:18pm 9 13 mph 1020.7mb 65f
5:10pm 10 13 mph 1020mb 65f
5:00pm 9 13 mph 1020.7mb 65f
4:50pm 9 13 mph 1020mb 65f
4:40pm 9 13 mph 1020mb 65f
4:30pm 9 13 mph 1020.7mb 65f
4:20pm 9 14 mph 1020mb 65f
4:18pm 9 14 mph 1020mb 65f
4:10pm 9 14 mph 1020.7mb 65f
4:00pm 9 13 mph 1020.3mb 66f
3:50pm 10 13 mph 1020.7mb 66f
3:40pm 10 13 mph 1021mb 66f
3:30pm 10 13 mph 1020.7mb 66f
3:20pm 10 13 mph 1021mb 66f
3:17pm 9 14 mph 1020.3mb 66f
3:10pm 10 13 mph 1020.3mb 66f
3:00pm 10 14 mph 1020.3mb 66f
2:50pm 9 13 mph 1020.3mb 66f
2:40pm 9 13 mph 1020.7mb 66f
2:30pm 9 11 mph 1021.3mb 66f
2:20pm 10 11 mph 1020.7mb 65f
2:17pm 9 11 mph 1021.3mb 65f
2:10pm 9 11 mph 1021.3mb 65f
2:00pm 9 10 mph 1021mb 65f
1:50pm 8 10 mph 1021.7mb 65f
1:40pm 8 10 mph 1021.7mb 64f
1:30pm 9 10 mph 1021mb 65f
1:20pm 8 9 mph 1021.7mb 64f
1:17pm 8 9 mph 1021.7mb 64f
1:10pm 7 9 mph 1021.3mb 64f
1:00pm 7 8 mph 1021.3mb 64f
12:50pm 6 7 mph 1021.7mb 63f
12:40pm 6 7 mph 1021.7mb 64f
12:30pm 5 7 mph 1021.3mb 64f
12:20pm 5 6 mph 1022mb 64f
12:16pm 5 7 mph 1022mb 63f
12:10pm 5 7 mph 1021.7mb 63f
12:00pm 5 6 mph 1021.7mb 63f
11:50am 5 6 mph 1022mb 63f
11:40am 3 6 mph 1022mb 64f
11:30am 6
mph
1021.3mb 63f
11:20am 5 6 mph 1021.3mb 63f
11:16am 3 6 mph 1022mb 63f
11:10am 5 6 mph 1021.3mb 63f
11:00am 5 6 mph 1022mb 68f
10:50am 1 3 mph 1021.3mb 67f
10:40am  -  3 mph 1021.7mb 67f
10:30am  -  3 mph 1022mb 67f
10:20am  -  3 mph 1021.3mb 66f
10:15am 1 8 mph 1021.3mb 65f
10:10am 3 7 mph 1021mb 64f
10:00am 5 8 mph 1021.7mb 63f
9:50am 5 7 mph 1021.7mb 62f
9:40am 2 6 mph 1021mb 61f
9:30am 3 7 mph 1021mb 60f
9:20am 2 5 mph 1021mb 59f
9:15am 2 7 mph 1021mb 58f
9:10am 2 7 mph 1021mb 58f
9:00am 3 7 mph 1021.3mb 58f
8:50am  -  5 mph 1021mb 58f
8:40am  -  3 mph 1021.3mb 58f
8:30am  -  3 mph 1021mb 56f
8:20am  -  3 mph 1021mb 55f
8:15am  -  3 mph 1020.7mb 54f
8:10am 1 3 mph 1020.3mb 54f
8:00am  -  2 mph 1020.7mb 53f
7:50am  -  2 mph 1020.7mb 51f
7:40am  -  2 mph 1020mb 51f
7:30am  -  2 mph 1020.7mb 51f
7:20am  -  2 mph 1020.3mb 51f
7:14am  -  5 mph 1019.6mb 51f
7:10am  -  mph 1020.3mb 51f
7:00am  -  2 mph 1020.3mb 51f
6:50am  -  2 mph 1020.3mb 51f
6:40am 1 3 mph 1020mb 51f
6:30am 2 5 mph 1019.6mb 50f
6:20am 2 5 mph 1019.6mb 49f
6:14am 1 5 mph 1019mb 49f
6:10am 1 3 mph 1019.6mb 49f
6:00am  -  2 mph 1019.6mb 48f
5:50am  -  2 mph 1019.3mb 48f
5:40am 1 2 mph 1019.6mb 49f
5:30am  -  2 mph 1019.3mb 49f
5:20am  -  1 mph 1019.3mb 49f
5:13am  -  3 mph 1018.6mb 49f
5:10am  -  3 mph 1019mb 49f
5:00am  -  3 mph 1019.3mb 49f
4:50am 1 2 mph 1019mb 48f
4:40am  -  3 mph 1019.3mb 48f
4:30am  -  2 mph 1018.6mb 48f
4:20am  -  3 mph 1019mb 48f
4:13am 1 5 mph 1019mb 48f
4:10am 1 2 mph 1019mb 48f
4:00am 1 3 mph 1018.3mb 48f
3:50am 2 3 mph 1019mb 49f
3:40am 2 3 mph 1018.6mb 49f
3:30am 2 5 mph 1018.6mb 49f
3:20am 2 5 mph 1018.6mb 49f
3:13am 3 5 mph 1018.3mb 49f
3:10am 3 5 mph 1018.6mb 49f
3:00am 3 5 mph 1018.3mb 50f
2:50am 2 3 mph 1018.6mb 51f
2:40am  -  2 mph 1017.6mb 51f
2:30am 2
mph
1017.6mb 53f
2:20am 1 2 mph 1017.9mb 52f
2:12am  -  2 mph 1018.3mb 53f
2:10am  -  2 mph 1017.9mb 53f
2:00am  -  2 mph 1018.3mb 53f
1:50am  -  2 mph 1017.9mb 54f
1:40am  -  2 mph 1018.3mb 54f
1:30am  -  2 mph 1017.9mb 54f
1:20am  -  mph 1018.3mb 53f
1:12am  -  3 mph 1017.9mb 53f
1:10am  -  mph 1018.3mb 53f
1:00am  -  mph 1018.3mb 53f
12:50am  -  mph 1017.6mb 53f
12:40am  -  2 mph 1017.9mb 53f
12:30am 1 3 mph 1017.6mb 53f
12:20am 1 2 mph 1017.6mb 53f
12:11am 1 3 mph 1017.6mb 53f
12:10am 1 3 mph 1017.9mb 53f
12:00am 2 3 mph 1017.6mb 53f
Wed 09/17 11:50pm 2 3 mph 1017.6mb 53f
11:40pm 2 3 mph 1017.6mb 53f
11:30pm 2 3 mph 1017.3mb 53f
11:20pm 1 2 mph 1017.6mb 53f
11:11pm 1 3 mph 1017.3mb 53f
11:10pm 1 2 mph 1017.3mb 53f
11:00pm 2 3 mph 1017.9mb 53f
10:50pm 2 3 mph 1017.9mb 54f
10:40pm 2 3 mph 1017.6mb 53f
10:30pm 2 3 mph 1017.9mb 54f
10:20pm 1 2 mph 1017.3mb 54f
10:11pm  -  2 mph 1017.3mb 54f
10:10pm  -  2 mph 1016.9mb 54f
10:00pm  -  2 mph 1017.6mb 54f
9:50pm  -  mph 1017.6mb 55f
9:40pm  -  mph 1017.6mb 55f
9:30pm  -  mph 1017.3mb 56f
9:20pm  -  mph 1016.6mb 56f
9:10pm  -  3 mph 1016.6mb 56f
9:00pm  -  mph 1017.3mb 56f
8:50pm  -  mph 1016.9mb 56f
8:40pm  -  mph 1016.6mb 56f
8:30pm  -  mph 1016.9mb 57f
8:20pm  -  3 mph 1016.3mb 57f
8:10pm  -  2 mph 1017.3mb 57f
8:00pm  -  1 mph 1016.9mb 57f
7:50pm  -  mph 1016.3mb 58f
7:40pm  -  mph 1016.6mb 58f
7:30pm  -  mph 1016.6mb 58f
7:20pm  -  2 mph 1015.9mb 58f
7:10pm  -  2 mph 1016.6mb 59f
7:09pm  -  7 mph 1016.6mb 59f
7:00pm  -  mph 1016.6mb 59f
6:50pm  -  1 mph 1016.6mb 60f
6:40pm  -  3 mph 1015.9mb 61f
6:30pm 2 5 mph 1015.9mb 62f
6:20pm 5 7 mph 1016.6mb 63f
6:10pm 5 6 mph 1015.9mb 63f
6:09pm 5 7 mph 1016.6mb 64f
6:00pm 5 7 mph 1016.9mb 64f
5:50pm 5 7 mph 1016.9mb 64f
5:40pm 5 7 mph 1015.9mb 64f
5:30pm 3 7 mph 1016.3mb 64f
5:20pm 6
mph
1016.9mb 64f
5:10pm 5 7 mph 1016.6mb 65f
5:09pm 5 7 mph 1016.9mb 65f
5:00pm 5 6 mph 1016.3mb 65f
4:50pm 3 6 mph 1016.9mb 65f
4:40pm 3 6 mph 1016.9mb 64f
4:30pm 2 6 mph 1016.3mb 64f
4:20pm 5 6 mph 1016.9mb 65f
4:10pm 5 7 mph 1017.3mb 65f
4:08pm 5 9 mph 1016.9mb 65f
4:00pm 5 6 mph 1016.9mb 65f
3:50pm 6 8 mph 1017.3mb 64f
3:40pm 7 9 mph 1016.9mb 65f
3:30pm 7 8 mph 1016.6mb 65f
3:20pm 7 8 mph 1017.3mb 65f
3:10pm 7 9 mph 1017.3mb 66f
3:08pm 7 10 mph 1017.3mb 66f
3:00pm 7 9 mph 1016.6mb 66f
2:50pm 6 10 mph 1016.6mb 66f
2:40pm 8 10 mph 1017.3mb 67f
2:30pm 7 9 mph 1017.3mb 67f
2:20pm 7 9 mph 1016.9mb 67f
2:10pm 8 9 mph 1017.3mb 67f
2:07pm 8 11 mph 1017.3mb 67f
2:00pm 8 10 mph 1016.9mb 67f
1:50pm 8 9 mph 1017.3mb 67f
1:40pm 8 10 mph 1016.9mb 66f
1:30pm 7 10 mph 1017.6mb 66f
1:20pm 8 11 mph 1016.9mb 66f
1:10pm 9 11 mph 1017.6mb 65f
1:07pm 9 13 mph 1017.3mb 65f
1:00pm 10 11 mph 1017.9mb 65f
12:50pm 10 13 mph 1017.6mb 65f
12:40pm 8 11 mph 1017.3mb 65f
12:30pm 8 10 mph 1017.6mb 65f
12:20pm 8 10 mph 1017.6mb 65f
12:10pm 8 11 mph 1017.9mb 64f
12:07pm 9 11 mph 1017.9mb 64f
12:00pm 8 10 mph 1017.9mb 64f
11:50am 7 10 mph 1017.3mb 64f
11:40am 8 10 mph 1017.9mb 64f
11:30am 8 10 mph 1017.6mb 64f
11:20am 8 9 mph 1017.6mb 64f
11:10am 9
mph
1017.9mb 64f
11:06am 7 10 mph 1017.6mb 64f
11:00am 8 9 mph 1017.3mb 64f
10:50am 8 9 mph 1017.6mb 64f
10:40am 7 10 mph 1017.6mb 64f
10:30am 8 9 mph 1017.6mb 63f
10:20am 7 9 mph 1017.3mb 63f
10:10am 7 9 mph 1017.6mb 62f
10:06am 6 9 mph 1017.3mb 62f
10:00am 3 7 mph 1017.6mb 62f
9:50am 3 9 mph 1017.9mb 61f
9:40am 3 9 mph 1018.3mb 59f
9:30am 3 7 mph 1017.6mb 59f
9:20am 3 7 mph 1017.9mb 58f
9:10am 2 6 mph 1017.6mb 58f
9:05am 2 9 mph 1017.9mb 57f
9:00am 3 8 mph 1018.3mb 57f
8:50am 2 6 mph 1017.9mb 56f
8:40am 3 9 mph 1017.9mb 56f
8:30am 3 8 mph 1017.6mb 55f
8:20am 3 7 mph 1017.9mb 53f
8:10am 3 7 mph 1017.9mb 53f
8:05am 3 9 mph 1018.3mb 52f
8:00am 3 7 mph 1017.9mb 52f
7:50am 3 7 mph 1018.3mb 51f
7:40am 3 7 mph 1017.9mb 50f
7:30am 3 7 mph 1018.6mb 50f
7:20am 5 8 mph 1018.6mb 49f
7:10am 3 9 mph 1018.6mb 49f
7:05am 5 8 mph 1018.3mb 49f
7:00am 5 7 mph 1017.9mb 49f
6:50am 5 8 mph 1018.6mb 49f
6:40am 3 7 mph 1017.9mb 49f
6:30am 5 8 mph 1017.9mb 49f
6:20am 5 8 mph 1017.6mb 49f
6:10am 5 7 mph 1017.6mb 49f
6:04am 3 9 mph 1018.6mb 49f
6:00am 5 7 mph 1017.6mb 49f
5:50am 5 9 mph 1017.9mb 49f
5:40am 5 7 mph 1018.6mb 49f
5:30am 5 6 mph 1018.3mb 49f
5:20am 3 6 mph 1017.6mb 49f
5:10am 3 7 mph 1018.6mb 50f
5:04am 5 7 mph 1017.9mb 50f
5:00am 3 6 mph 1017.6mb 50f
4:50am 5 7 mph 1018.6mb 50f
4:40am 3 7 mph 1018.6mb 50f
4:30am 5 7 mph 1018.6mb 50f
4:20am 3 6 mph 1018.6mb 51f
4:10am 3 6 mph 1018.6mb 51f
4:03am 3 7 mph 1018.6mb 51f
4:00am 3 7 mph 1018.6mb 51f
3:50am 3 7 mph 1018.6mb 51f
3:40am 3 6 mph 1018.6mb 50f
3:30am 3 6 mph 1018.6mb 51f
3:20am 3 6 mph 1019mb 51f
3:10am 3 6 mph 1018.6mb 51f
3:03am 5 7 mph 1019mb 51f
3:00am 5 7 mph 1019mb 51f
2:50am 3 6 mph 1019mb 51f
2:40am 3 6 mph 1019mb 51f
2:30am 3 5 mph 1019mb 51f
2:20am 3 6 mph 1019mb 51f
2:10am 3 6 mph 1019mb 51f
2:02am 3 5 mph 1018.3mb 50f
2:00am 3 5 mph 1018.3mb 50f
1:50am 2 5 mph 1019mb 51f
1:40am 3 5 mph 1019mb 52f
1:30am 3 5 mph 1019mb 52f
1:20am 2 3 mph 1019.3mb 52f
1:10am 2 5 mph 1019.3mb 52f
1:02am 2 5 mph 1019.3mb 52f
1:00am 2 3 mph 1019.6mb 52f
12:50am 2 3 mph 1019.6mb 51f
12:40am 2 3 mph 1019.3mb 51f
12:30am 2 3 mph 1019.3mb 51f
12:20am 2 5 mph 1019.6mb 51f
12:10am 2 3 mph 1018.6mb 51f
12:02am 2 5 mph 1019mb 51f
12:00am 2 5 mph 1019mb 51f
Tue 09/16 11:50pm 2 3 mph 1019.3mb 51f
11:40pm 2 3 mph 1019mb 51f
11:30pm 2 5 mph 1020mb 51f
11:20pm 2 5 mph 1020mb 51f
11:10pm 2 5 mph 1020mb 51f
11:01pm 2 5 mph 1020mb 51f
11:00pm 2 3 mph 1020mb 51f
10:50pm 2 5 mph 1020mb 51f
10:40pm 2 5 mph 1020.3mb 51f
10:30pm 2 3 mph 1020mb 51f
10:20pm 2 3 mph 1019.3mb 51f
10:10pm 2 3 mph 1019.6mb 52f
10:01pm 1 3 mph 1019.6mb 52f
10:00pm 1 3 mph 1020mb 52f
9:50pm 1 3 mph 1020mb 51f
9:40pm 1 2 mph 1019.6mb 51f
9:30pm 1 2 mph 1020mb 52f
9:20pm 1 2 mph 1020mb 53f
9:10pm 1 2 mph 1020mb 53f
9:00pm 2
mph
1020.3mb 53f
8:50pm 2 3 mph 1019.6mb 54f
8:40pm 2 3 mph 1020mb 54f
8:30pm 2 3 mph 1020mb 54f
8:20pm 1 2 mph 1020.3mb 54f
8:10pm 1 3 mph 1020.3mb 55f
8:00pm 1 3 mph 1020mb 55f
7:50pm 1 3 mph 1019.6mb 55f
7:40pm 1 2 mph 1020mb 55f
7:30pm 1 2 mph 1020mb 56f
7:20pm 1 3 mph 1019.6mb 56f
7:10pm 1 3 mph 1020mb 56f
7:00pm 1 3 mph 1020.3mb 57f
6:50pm 3 6 mph 1020mb 60f
6:40pm 3 6 mph 1020.3mb 60f
6:30pm 3 7 mph 1020.3mb 60f
6:20pm 6 7 mph 1020mb 60f
6:10pm 3 7 mph 1020.7mb 61f
6:00pm 5 6 mph 1020.3mb 62f
5:59pm 5 9 mph 1020mb 61f
5:50pm 5 8 mph 1020.3mb 61f
5:40pm 6 8 mph 1020.7mb 62f
5:30pm 5 7 mph 1020mb 62f
5:20pm 5 7 mph 1021mb 62f
5:10pm 6 9 mph 1020mb 62f
5:00pm 6 9 mph 1020.7mb 62f
4:59pm 7 9 mph 1021mb 62f
4:50pm 7 9 mph 1021mb 62f
4:40pm 6 9 mph 1020.3mb 61f
4:30pm 7 9 mph 1021mb 61f
4:20pm 8 9 mph 1021.3mb 61f
4:10pm 7 9 mph 1020.3mb 61f
4:00pm 6 10 mph 1021.3mb 63f
3:58pm 7 10 mph 1021mb 63f
3:50pm 5 8 mph 1021mb 62f
3:40pm 7 9 mph 1020.7mb 62f
3:30pm 6 10 mph 1021.7mb 62f
3:20pm 8 10 mph 1020.7mb 61f
3:10pm 6 9 mph 1021.3mb 61f
3:00pm 7 9 mph 1021.3mb 62f
2:58pm 7 11 mph 1021mb 61f
2:50pm 8 10 mph 1020.7mb 62f
2:40pm 6 9 mph 1021.7mb 61f
2:30pm 7 10 mph 1021mb 61f
2:20pm 8 10 mph 1021.7mb 61f
2:10pm 7 11 mph 1021.7mb 61f
2:00pm 7 11 mph 1021.7mb 61f
1:58pm 7 11 mph 1021.3mb 61f
1:50pm 8 10 mph 1022mb 61f
1:40pm 6 9 mph 1021.7mb 61f
1:30pm 7 10 mph 1021.7mb 61f
1:20pm 8 9 mph 1022mb 61f
1:10pm 9 11 mph 1021.3mb 61f
1:00pm 8 10 mph 1022.4mb 60f
12:57pm 7 14 mph 1022mb 61f
12:50pm 7 9 mph 1021.7mb 61f
12:40pm 6 14 mph 1022.4mb 64f
12:30pm 8 11 mph 1022mb 62f
12:20pm 8 11 mph 1022.4mb 62f
12:10pm 7 11 mph 1022.7mb 62f
12:00pm 8 10 mph 1021.7mb 63f
11:57am 6 10 mph 1022.4mb 64f
11:50am 7 10 mph 1022.7mb 63f
11:40am 7 8 mph 1022.4mb 62f
11:30am 8 9 mph 1022.4mb 61f
11:20am 8 10 mph 1023mb 63f
11:10am 6 8 mph 1022.4mb 62f
11:00am 6 8 mph 1023mb 62f
10:56am 6 10 mph 1023mb 63f
10:50am 9 10 mph 1023mb 62f
10:40am 7 8 mph 1022.4mb 63f
10:30am 6 7 mph 1022.7mb 62f
10:20am 6 9 mph 1023mb 61f
10:10am 5 6 mph 1022.7mb 60f
10:00am 3 5 mph 1022.4mb 59f
9:56am 2 5 mph 1022.7mb 59f
9:50am 3 5 mph 1023mb 59f
9:40am 2 5 mph 1023.4mb 59f
9:30am 3 5 mph 1023.4mb 58f
9:20am 3
mph
1023mb 58f
9:10am  -  2 mph 1022.4mb 57f
9:00am  -  5 mph 1022.7mb 57f
8:56am  -  5 mph 1022.7mb 57f
8:50am  -  5 mph 1022.7mb 57f
8:40am  -  3 mph 1023mb 57f
8:30am 1 5 mph 1023mb 55f
8:20am  -  2 mph 1023mb 55f
8:10am  -  2 mph 1023mb 54f
8:00am  -  2 mph 1022.7mb 53f
7:55am  -  5 mph 1023mb 53f
7:50am  -  2 mph 1022.4mb 53f
7:40am  -  5 mph 1022.4mb 52f
7:30am  -  2 mph 1022.4mb 51f
7:20am  -  2 mph 1022.4mb 50f
7:10am  -  1 mph 1022.4mb 49f
7:00am  -  mph 1022.4mb 49f
6:55am  -  2 mph 1023mb 49f
6:50am  -  2 mph 1022mb 49f
6:40am  -  2 mph 1022.4mb 48f
6:30am  -  1 mph 1022mb 48f
6:20am  -  2 mph 1022.4mb 49f
6:10am  -  2 mph 1022.4mb 48f
6:00am  -  mph 1022.4mb 49f
5:54am  -  1 mph 1022.7mb 49f
5:50am  -  mph 1022.4mb 49f
5:40am  -  mph 1022.4mb 48f
5:30am  -  mph 1022.4mb 49f
5:20am  -  1 mph 1022.4mb 49f
5:10am  -  1 mph 1022.4mb 49f
5:00am  -  1 mph 1022.4mb 49f
4:54am  -  3 mph 1021.7mb 50f
4:50am  -  1 mph 1021.7mb 50f
4:40am 1 3 mph 1021.7mb 50f
4:30am  -  3 mph 1021.3mb 50f
4:20am  -  2 mph 1021.7mb 50f
4:10am  -  3 mph 1022mb 51f
4:00am  -  2 mph 1022mb 51f
3:54am  -  6 mph 1022.4mb 52f
3:50am  -  3 mph 1022mb 52f
3:40am  -  5 mph 1022.4mb 52f
3:30am 1 5 mph 1022mb 52f
3:20am 2 6 mph 1022mb 53f
3:10am  -  6 mph 1022mb 53f
3:00am  -  6 mph 1021.7mb 53f
2:53am 2 8 mph 1021.7mb 53f
2:50am 2 8 mph 1022mb 53f
2:40am 2 5 mph 1022.4mb 53f
2:30am  -  6 mph 1022.4mb 53f
2:20am  -  3 mph 1022.4mb 53f
2:10am 2 6 mph 1021.7mb 53f
2:00am  -  3 mph 1021.3mb 53f
1:53am 1 6 mph 1021.3mb 53f
1:50am  -  3 mph 1021.7mb 53f
1:40am  -  2 mph 1022mb 53f
1:30am  -  3 mph 1022mb 54f
1:20am  -  3 mph 1022mb 54f
1:10am 1 6 mph 1022mb 54f
1:00am  -  7 mph 1021.7mb 54f
12:52am 2 8 mph 1022mb 55f
12:50am 2 6 mph 1021.3mb 55f
12:40am 2 5 mph 1021mb 55f
12:30am  -  6 mph 1021mb 55f
12:20am 1 6 mph 1021mb 55f
12:10am 2 8 mph 1021.3mb 55f
12:00am 2 6 mph 1021.3mb 55f
Mon 09/15 11:52pm  -  5 mph 1020.7mb 55f
11:50pm  -  5 mph 1021.7mb 55f
11:40pm 1 5 mph 1021.3mb 55f
11:30pm 1 3 mph 1020.7mb 54f
11:20pm  -  2 mph 1020.7mb 54f
11:10pm  -  3 mph 1021mb 54f
11:00pm  -  3 mph 1021.3mb 55f
10:52pm  -  6 mph 1020.3mb 55f
10:50pm  -  3 mph 1021mb 55f
10:40pm 1 6 mph 1020.3mb 55f
10:30pm  -  6 mph 1020.3mb 55f
10:20pm 3 5 mph 1021mb 56f
10:10pm 1 5 mph 1021mb 56f
10:00pm 2 6 mph 1021mb 56f
9:51pm 1 11 mph 1020.3mb 56f
9:50pm 1 7 mph 1020.7mb 56f
9:40pm 2 6 mph 1020.3mb 56f
9:30pm 2 6 mph 1020mb 56f
9:20pm 2 7 mph 1020.7mb 56f
9:10pm  -  11 mph 1020.7mb 57f
9:00pm 1 8 mph 1020.7mb 57f
8:51pm 5 17 mph 1020mb 58f
8:50pm 5 8 mph 1020mb 58f
8:40pm 3 10 mph 1020mb 58f
8:30pm 3 13 mph 1020.3mb 58f
8:20pm 8 15 mph 1020mb 59f
8:10pm 9 17 mph 1019.3mb 59f
8:00pm 9 15 mph 1019.6mb 59f
7:50pm 9 17 mph 1020.3mb 59f
7:40pm 11 17 mph 1019.6mb 60f
7:30pm 11 21 mph 1019.3mb 60f
7:20pm 18 22 mph 1020mb 60f
7:10pm 16 20 mph 1019.6mb 60f
7:00pm 15 20 mph 1019mb 60f
6:50pm 14 17 mph 1019.3mb 61f
6:40pm 10 11 mph 1020mb 61f
6:30pm 8 9 mph 1019.3mb 60f
6:20pm 6 9 mph 1019.3mb 60f
6:10pm 8 10 mph 1020mb 60f
6:00pm 7 11 mph 1020mb 60f
5:50pm 9 15 mph 1020mb 60f
5:49pm 9 20 mph 1019.3mb 60f
5:40pm 11 17 mph 1019.3mb 60f
5:30pm 14 16 mph 1020mb 60f
5:20pm 14 20 mph 1019.6mb 60f
5:10pm 11 15 mph 1019mb 62f
5:00pm 11 16 mph 1019.3mb 62f
4:50pm 13 18 mph 1019.6mb 61f
4:49pm 14 21 mph 1019.6mb 61f
4:40pm 15 20 mph 1019.3mb 61f
4:30pm 16 21 mph 1018.6mb 61f
4:20pm 15 17 mph 1019.3mb 61f
4:10pm 15 17 mph 1019mb 61f
4:00pm 14 17 mph 1018.6mb 61f
3:50pm 15 18 mph 1019.3mb 62f
3:49pm 14 18 mph 1019mb 62f
3:40pm 15 18 mph 1018.6mb 62f
3:30pm 13 17 mph 1019mb 62f
3:20pm 13 17 mph 1019.3mb 62f
3:10pm 14 17 mph 1018.6mb 62f
3:00pm 15 18 mph 1019.3mb 62f
2:50pm 14 17 mph 1019mb 62f
2:48pm 15 20 mph 1019.3mb 62f
2:40pm 15 17 mph 1019mb 62f
2:30pm 15 20 mph 1019.3mb 62f
2:20pm 9 14 mph 1018.6mb 62f
2:10pm 10 16 mph 1019.6mb 62f
2:00pm 10 15 mph 1019mb 62f
1:50pm 11 16 mph 1019.6mb 62f
1:48pm 13 16 mph 1019mb 62f
1:40pm 11 16 mph 1020mb 62f
1:30pm 10 14 mph 1019.3mb 62f
1:20pm 9 15 mph 1020.3mb 62f
1:10pm 9 13 mph 1020mb 62f
1:00pm 8 13 mph 1019.6mb 61f
12:50pm 6 10 mph 1020mb 61f
12:47pm 3 13 mph 1020.3mb 61f
12:40pm 3 10 mph 1020.7mb 61f
12:30pm 5 13 mph 1021mb 61f
12:20pm 6 10 mph 1020.3mb 61f
12:10pm 2 13 mph 1020.3mb 61f
12:00pm 6 13 mph 1021.3mb 60f
11:50am 7 13 mph 1021mb 60f
11:47am 3 13 mph 1021mb 60f
11:40am 5 8 mph 1020.3mb 59f
11:30am 5 11 mph 1021mb 59f
11:20am  -  7 mph 1021mb 58f
11:10am 3 7 mph 1020.7mb 58f
11:00am 2 6 mph 1020.7mb 58f
10:50am 1 10 mph 1021mb 58f
10:47am 5 10 mph 1021.7mb 59f
10:40am 2 5 mph 1021.3mb 58f
10:30am 1 7 mph 1021.3mb 58f
10:20am  -  5 mph 1020.7mb 58f
10:10am 1 6 mph 1020.7mb 58f
10:00am 1 5 mph 1021mb 57f
9:50am  -  5 mph 1021mb 57f
9:46am 1 8 mph 1021mb 57f
9:40am  -  6 mph 1021.7mb 56f
9:30am  -  8 mph 1021mb 56f
9:20am  -  5 mph 1020.3mb 56f
9:10am  -  3 mph 1020.7mb 56f
9:00am  -  3 mph 1021mb 56f
8:50am  -  2 mph 1021.7mb 56f
8:46am  -  7 mph 1022mb 55f
8:40am  -  3 mph 1022mb 55f
8:30am  -  6 mph 1022mb 55f
8:20am 2 7 mph 1022mb 55f
8:10am  -  6 mph 1021.3mb 55f
8:00am 1 7 mph 1021.3mb 55f
7:50am  -  5 mph 1021.7mb 54f
7:45am  -  8 mph 1021.7mb 54f
7:40am  -  8 mph 1021.7mb 54f
7:30am  -  7 mph 1021.7mb 54f
7:20am 1 7 mph 1022mb 54f
7:10am  -  6 mph 1022mb 54f
7:00am  -  8 mph 1022.4mb 53f
6:50am 1 7 mph 1022mb 53f
6:45am 1 10 mph 1021mb 53f
6:40am  -  7 mph 1022mb 53f
6:30am 3 10 mph 1022.4mb 53f
6:20am 2 9 mph 1022mb 53f
6:10am 3 9 mph 1021.7mb 53f
6:00am 5 10 mph 1021.3mb 53f
5:50am 3 8 mph 1021.3mb 53f
5:45am 3 9 mph 1021.3mb 53f
5:40am 3 7 mph 1021.7mb 53f
5:30am 3 9 mph 1022mb 53f
5:20am 5 7 mph 1022mb 52f
5:10am 3 9 mph 1022mb 52f
5:00am 3 7 mph 1021.7mb 52f
4:50am 3 6 mph 1021.3mb 52f
4:44am 3 8 mph 1022mb 52f
4:40am 3 7 mph 1021.3mb 52f
4:30am 3 6 mph 1021.7mb 52f
4:20am 3 7 mph 1022mb 52f
4:10am 3 8 mph 1022mb 52f
4:00am 3 8 mph 1022.7mb 52f
3:50am 3 8 mph 1022.4mb 53f
3:44am 3 10 mph 1022mb 53f
3:40am 3 7 mph 1022.4mb 53f
3:30am 3 9 mph 1022.7mb 53f
3:20am 5 10 mph 1022.7mb 53f
3:10am 5 9 mph 1022.7mb 52f
3:00am 3 8 mph 1022.7mb 53f
2:50am 2 8 mph 1022.7mb 54f
2:43am 3 10 mph 1022mb 54f
2:40am 3 10 mph 1022.4mb 54f
2:30am 6 9 mph 1022.4mb 53f
2:20am 3 7 mph 1022.4mb 53f
2:10am 5 8 mph 1022mb 53f
2:00am 5 9 mph 1022mb 53f
1:50am 3 6 mph 1022.4mb 53f
1:43am 3 6 mph 1022.7mb 53f
1:40am 2 5 mph 1022.4mb 53f
1:30am 3 6 mph 1022.4mb 53f
1:20am 3 6 mph 1022.7mb 52f
1:10am 2 6 mph 1022.7mb 52f
1:00am 3 5 mph 1022.7mb 52f
12:50am 3 5 mph 1023mb 52f
12:43am 3 8 mph 1023mb 53f
12:40am 3 8 mph 1023mb 53f
12:30am 3 6 mph 1023mb 52f
12:20am 2 6 mph 1023mb 53f
12:10am 2 6 mph 1022.7mb 53f